Weather History for Pawtucket, RI

Change the Weather History Date:

Monday, October 8, 2012

  Actual Average Record
Temperature  
Mean Temperature 46 °F -  
Max Temperature 55 °F 60 °F 77 °F (2011)
Min Temperature 37 °F 43 °F 28 °F (1999)
Degree Days  
Heating Degree Days 19    
Moisture  
Dew Point 35 °F    
Average Humidity 64    
Maximum Humidity 76    
Minimum Humidity 44    
Precipitation  
Precipitation 0.00 in - - ()
Sea Level Pressure  
Sea Level Pressure 30.20 in    
Wind  
Wind Speed 3 mph (NNW)    
Max Wind Speed 8 mph    
Max Gust Speed -    
Visibility 10 miles    
Events      
Averages and records for this station are not official NWS values.
T = Trace of Precipitation, MM = Missing Value Source: NWS Daily Summary

Daily Weather History Graph

Daily Weather History Graph

Search for Another Location

Airport:

Trip Planner

Search our weather history database for the weather conditions in past years. The results will help you decide how hot, cold, wet, or windy it might be!

Date:

Astronomy

Oct. 08, 2012 Rise Set
Actual Time 6:51 AM EDT 6:15 PM EDT
Civil Twilight 6:23 AM EDT 6:42 PM EDT
Nautical Twilight 5:50 AM EDT 7:15 PM EDT
Astronomical Twilight 5:18 AM EDT 7:47 PM EDT
Moon No Moon Rise 2:08 PM EDT (10/8)
Length of Visible Light 12h 19m
Length of Day
11h 24m
Waning Gibbous, 46% of the Moon is Illuminated
Oct 8
Waning Gibbous
Oct 15
New
Oct 21
First Quarter
Oct 29
Full
Nov 6
Last Quarter

Hourly Weather History & Observations

Time (EDT) Temp. Windchill Dew Point Humidity Pressure Visibility Wind Dir Wind Speed Gust Speed Precip Events Conditions
12:15 AM 44.6 °F 42.2 °F 37.4 °F 76% 30.05 in 10.0 mi WNW 4.6 mph - N/A   Overcast
12:35 AM 44.6 °F 42.2 °F 35.6 °F 71% 30.07 in 10.0 mi West 4.6 mph - N/A   Mostly Cloudy
12:55 AM 44.6 °F 42.2 °F 35.6 °F 71% 30.07 in 10.0 mi WNW 4.6 mph - N/A   Mostly Cloudy
1:15 AM 44.6 °F 42.2 °F 35.6 °F 71% 30.08 in 10.0 mi WNW 4.6 mph - N/A   Scattered Clouds
1:35 AM 44.6 °F 42.2 °F 35.6 °F 71% 30.08 in 10.0 mi WNW 4.6 mph - N/A   Mostly Cloudy
1:55 AM 44.6 °F 42.2 °F 35.6 °F 71% 30.08 in 10.0 mi WNW 4.6 mph - N/A   Mostly Cloudy
2:15 AM 42.8 °F 41.1 °F 35.6 °F 76% 30.08 in 10.0 mi NW 3.5 mph - N/A   Mostly Cloudy
2:55 AM 42.8 °F 40.1 °F 33.8 °F 70% 30.07 in 10.0 mi WNW 4.6 mph - N/A   Clear
3:15 AM 42.8 °F 40.1 °F 33.8 °F 70% 30.07 in 10.0 mi WNW 4.6 mph - N/A   Clear
3:35 AM 42.8 °F 40.1 °F 33.8 °F 70% 30.07 in 10.0 mi WNW 4.6 mph - N/A   Clear
3:55 AM 39.2 °F - 32.0 °F 75% 30.08 in 10.0 mi Calm Calm - N/A   Clear
4:15 AM 39.2 °F 35.9 °F 32.0 °F 75% 30.09 in 10.0 mi WNW 4.6 mph - N/A   Clear
4:35 AM 39.2 °F - 30.2 °F 70% 30.10 in 10.0 mi Calm Calm - N/A   Clear
4:55 AM 39.2 °F 35.9 °F 32.0 °F 75% 30.11 in 10.0 mi WNW 4.6 mph - N/A   Clear
5:15 AM 39.2 °F - 30.2 °F 70% 30.11 in 10.0 mi Calm Calm - N/A   Clear
5:35 AM 39.2 °F 37.0 °F 30.2 °F 70% 30.12 in 10.0 mi North 3.5 mph - N/A   Clear
5:55 AM 39.2 °F - 30.2 °F 70% 30.12 in 10.0 mi Calm Calm - N/A   Clear
6:15 AM 39.2 °F 37.0 °F 30.2 °F 70% 30.12 in 10.0 mi NW 3.5 mph - N/A   Clear
6:35 AM 37.4 °F - 30.2 °F 75% 30.13 in 10.0 mi Calm Calm - N/A   Clear
6:55 AM 37.4 °F - 30.2 °F 75% 30.13 in 3.0 mi Calm Calm - N/A   Clear
7:15 AM 37.4 °F - 28.4 °F 70% 30.15 in 1.8 mi Calm Calm - N/A   Clear
7:35 AM 39.2 °F - 30.2 °F 70% 30.16 in 4.0 mi Calm Calm - N/A   Clear
7:55 AM 41.0 °F 38.0 °F 33.8 °F 76% 30.17 in 10.0 mi WNW 4.6 mph - N/A   Clear
8:15 AM 42.8 °F 40.1 °F 35.6 °F 76% 30.18 in 10.0 mi NW 4.6 mph - N/A   Clear
8:35 AM 44.6 °F 41.4 °F 35.6 °F 71% 30.20 in 10.0 mi NW 5.8 mph - N/A   Clear
8:55 AM 46.4 °F 44.3 °F 35.6 °F 66% 30.21 in 10.0 mi WNW 4.6 mph - N/A   Clear
9:15 AM 46.4 °F 44.3 °F 35.6 °F 66% 30.22 in 10.0 mi WNW 4.6 mph - N/A   Clear
9:35 AM 48.2 °F - 35.6 °F 62% 30.22 in 10.0 mi NW 4.6 mph - N/A   Clear
9:55 AM 48.2 °F - 35.6 °F 62% 30.23 in 10.0 mi NW 6.9 mph - N/A   Clear
10:35 AM 50.0 °F - 35.6 °F 58% 30.22 in 10.0 mi North 8.1 mph - N/A   Partly Cloudy
10:55 AM 51.8 °F - 35.6 °F 54% 30.23 in 10.0 mi North 8.1 mph - N/A   Clear
11:15 AM 51.8 °F - 33.8 °F 50% 30.24 in 10.0 mi WNW 5.8 mph - N/A   Clear
11:35 AM 53.6 °F - 35.6 °F 51% 30.23 in 10.0 mi NNE 4.6 mph - N/A   Scattered Clouds
11:55 AM 51.8 °F - 33.8 °F 50% 30.23 in 10.0 mi Calm Calm - N/A   Scattered Clouds
12:15 PM 53.6 °F - 35.6 °F 51% 30.24 in 10.0 mi NE 6.9 mph - N/A   Partly Cloudy
12:35 PM 53.6 °F - 33.8 °F 47% 30.23 in 10.0 mi ENE 4.6 mph - N/A   Scattered Clouds
12:55 PM 53.6 °F - 35.6 °F 51% 30.23 in 10.0 mi NNE 6.9 mph - N/A   Mostly Cloudy
1:15 PM 53.6 °F - 33.8 °F 47% 30.23 in 10.0 mi NNE 3.5 mph - N/A   Overcast
1:35 PM 53.6 °F - 33.8 °F 47% 30.22 in 10.0 mi Calm Calm - N/A   Mostly Cloudy
1:55 PM 53.6 °F - 33.8 °F 47% 30.24 in 10.0 mi Calm Calm - N/A   Overcast
2:15 PM 53.6 °F - 33.8 °F 47% 30.25 in 10.0 mi Calm Calm - N/A   Overcast
2:35 PM 55.4 °F - 35.6 °F 47% 30.25 in 10.0 mi Calm Calm - N/A   Overcast
2:55 PM 55.4 °F - 35.6 °F 47% 30.25 in 10.0 mi Calm Calm - N/A   Mostly Cloudy
3:15 PM 55.4 °F - 35.6 °F 47% 30.25 in 10.0 mi Calm Calm - N/A   Mostly Cloudy
3:35 PM 55.4 °F - 33.8 °F 44% 30.24 in 10.0 mi Calm Calm - N/A   Scattered Clouds
3:55 PM 55.4 °F - 35.6 °F 47% 30.24 in 10.0 mi South 3.5 mph - N/A   Clear
4:15 PM 55.4 °F - 35.6 °F 47% 30.24 in 10.0 mi Calm Calm - N/A   Clear
4:35 PM 53.6 °F - 33.8 °F 47% 30.24 in 10.0 mi Calm Calm - N/A   Mostly Cloudy
4:55 PM 53.6 °F - 37.4 °F 54% 30.23 in 10.0 mi Calm Calm - N/A   Mostly Cloudy
5:15 PM 53.6 °F - 39.2 °F 58% 30.26 in 10.0 mi Calm Calm - N/A   Overcast
5:35 PM 53.6 °F - 37.4 °F 54% 30.26 in 10.0 mi Calm Calm - N/A   Overcast
5:55 PM 51.8 °F - 37.4 °F 58% 30.26 in 10.0 mi Calm Calm - N/A   Overcast
6:15 PM 51.8 °F - 39.2 °F 62% 30.26 in 10.0 mi Calm Calm - N/A   Scattered Clouds
6:35 PM 50.0 °F - 39.2 °F 66% 30.27 in 10.0 mi Calm Calm - N/A   Scattered Clouds
6:55 PM 48.2 °F - 39.2 °F 71% 30.29 in 10.0 mi Calm Calm - N/A   Mostly Cloudy
7:15 PM 48.2 °F - 39.2 °F 71% 30.29 in 10.0 mi Calm Calm - N/A   Mostly Cloudy
7:35 PM 48.2 °F - 39.2 °F 71% 30.29 in 10.0 mi Calm Calm - N/A   Scattered Clouds
7:55 PM 48.2 °F - 37.4 °F 66% 30.28 in 10.0 mi Calm Calm - N/A   Partly Cloudy
8:15 PM 48.2 °F - 37.4 °F 66% 30.28 in 10.0 mi Calm Calm - N/A   Clear
8:35 PM 48.2 °F - 37.4 °F 66% 30.29 in 10.0 mi Calm Calm - N/A   Clear
8:55 PM 48.2 °F - 39.2 °F 71% 30.30 in 10.0 mi Calm Calm - N/A   Mostly Cloudy
9:15 PM 48.2 °F - 39.2 °F 71% 30.30 in 10.0 mi Calm Calm - N/A   Overcast
9:35 PM 48.2 °F - 39.2 °F 71% 30.29 in 10.0 mi SE 3.5 mph - N/A   Scattered Clouds
9:55 PM 48.2 °F - 39.2 °F 71% 30.29 in 10.0 mi Calm Calm - N/A   Scattered Clouds
10:15 PM 48.2 °F - 39.2 °F 71% 30.29 in 10.0 mi Calm Calm - N/A   Mostly Cloudy
10:35 PM 48.2 °F - 39.2 °F 71% 30.28 in 10.0 mi ENE 5.8 mph - N/A   Overcast
10:55 PM 48.2 °F - 39.2 °F 71% 30.29 in 10.0 mi ENE 3.5 mph - N/A   Overcast
11:15 PM 48.2 °F - 39.2 °F 71% 30.29 in 10.0 mi ENE 3.5 mph - N/A   Partly Cloudy
11:55 PM 48.2 °F - 37.4 °F 66% 30.27 in 10.0 mi East 4.6 mph - N/A   Clear